IRIDIUM 33 DEB, 33860

Orbit data source: Space-Track

IRIDIUM 33 DEB, 33860 is space debris in LEO originally from a launch on Sun, 14 Sep 1997 UTC launched from the Tyuratam Missile And Space Complex (TTMTR). The debris from Iridium 33, an American commercial communications satellite, has been tracked extensively since its accidental collision with the defunct Russian satellite Cosmos 2251 in 2009. This event, occurring at high speed in low Earth orbit (LEO), generated thousands of pieces of space debris, significantly increasing the risk of further collisions. The Iridium 33 debris cloud has impacted space traffic management and orbital debris mitigation strategies, making it a subject of ongoing study in space situational awareness.

Loading next visibility...
Identifier
33860, 1997-051AD
Orbit
LEO
Country
Flag of USUS
Related business
Manufacturer
Unknown
Mission
Spacecraft
Bus & Motor
Unknown
Mass
Unknown
Launch date (UTC)
1997-09-14 (28 years ago)
Launch vehicle
Unknown
Launch site
Tyuratam Missile And Space Complex (TTMTR)
Object type
Payload
Rocket body
Debris
Shape & HBR
Unknown shape, 0.1 m
Radar Cross Section
Small (<0.1 m²)

Expand to show TLE details & history
Last TLE update: 12 hours ago

TLE from 12 hours ago
0 IRIDIUM 33 DEB
1 33860U 97051AD  25307.56398490  .00009631  00000-0  17336-2 0  9994
2 33860  86.3863  44.5571 0010277 115.3973 257.1142 14.66473261881489
Epoch: 2025-11-03T13:32Z
TLE epoch observation values (Epoch: 2025-11-03T13:32:08.295Z)
Latitude
12.32832°
Longitude
159.24558°
Altitude
676.308 km
Speed
7.519 km/s
True Right ascension
03h 01m 22s
True Declination
12° 15' 21"
Sunlit
Object was in full shadow at epoch
Visualization orbit readout
Latitude
Unknown
Longitude
Unknown
Altitude
Unknown
Speed
Unknown
Apparent Right ascension
Unknown
Apparent Declination
Unknown
Sunlit
N/A
Visualization observer readout
Local Sidereal Time
21:51:35
Azimuth
Unknown
Elevation
Unknown
Doppler factor
Unknown
Orbital elements
Apogee altitude
676.511 km
Perigee altitude
662.026 km
Semi-major axis
7,047.406 km
Eccentricity
0.00103
Inclination
86.3863°
RAAN
44.5571°
Arg. of periapsis
115.3973°
True anomaly
256.99943°
Mean anomaly
257.1142°
Eccentric anomaly
257.05681°
Mean motion
3.66859 °/min
Orbital period
98.13 mins
BSTAR
0.0017336
Loading maneuver chart data...
Computing Atmospheric mass density...

Documentation

Showing up to 5 results
|